TimeEDT,TemperatureF,Dew PointF,Humidity,Sea Level PressureIn,VisibilityMPH,Wind Direction,Wind SpeedMPH,Gust SpeedMPH,PrecipitationIn,Events,Conditions,WindDirDegrees,DateUTC
12:13 AM,60.8,59.0,94,30.10,9.0,SE,3.5,-,N/A,,Clear,130,2013-05-10 04:13:00
12:18 AM,60.8,60.8,100,30.09,9.0,SE,2.3,-,N/A,,Clear,140,2013-05-10 04:18:00
12:58 AM,59.7,59.5,99,30.11,9.0,Calm,Calm,-,N/A,,Clear,0,2013-05-10 04:58:00
1:03 AM,59.0,59.0,100,30.10,7.0,ESE,2.3,-,N/A,,Clear,110,2013-05-10 05:03:00
1:13 AM,60.8,59.0,94,30.10,10.0,East,2.3,-,N/A,,Clear,100,2013-05-10 05:13:00
1:28 AM,59.0,59.0,100,30.10,8.0,ESE,2.3,-,N/A,,Clear,120,2013-05-10 05:28:00
1:53 AM,59.0,59.0,100,30.08,10.0,SE,3.5,-,N/A,,Clear,140,2013-05-10 05:53:00
1:58 AM,58.6,58.5,99,30.09,10.0,SE,2.3,-,N/A,,Clear,140,2013-05-10 05:58:00
2:38 AM,57.2,57.2,100,30.08,9.0,SE,3.5,-,N/A,,Clear,140,2013-05-10 06:38:00
2:48 AM,59.0,59.0,100,30.08,10.0,SE,2.3,-,N/A,,Clear,140,2013-05-10 06:48:00
2:53 AM,59.0,59.0,100,30.08,8.0,SE,3.5,-,N/A,,Clear,140,2013-05-10 06:53:00
2:58 AM,58.6,58.5,99,30.09,7.0,SE,2.3,-,N/A,,Clear,140,2013-05-10 06:58:00
3:08 AM,57.2,57.2,100,30.07,4.0,SE,2.3,-,N/A,,Clear,140,2013-05-10 07:08:00
3:18 AM,57.2,57.2,100,30.07,5.0,SE,2.3,-,N/A,,Clear,130,2013-05-10 07:18:00
3:28 AM,57.2,57.2,100,30.07,4.0,ESE,2.3,-,N/A,,Clear,120,2013-05-10 07:28:00
3:38 AM,57.2,57.2,100,30.07,2.5,SSE,5.8,-,N/A,,Clear,150,2013-05-10 07:38:00
3:43 AM,57.2,57.2,100,30.07,3.0,SSE,3.5,-,N/A,,Clear,150,2013-05-10 07:43:00
3:48 AM,57.2,57.2,100,30.07,6.0,SE,3.5,-,N/A,,Clear,140,2013-05-10 07:48:00
3:58 AM,57.4,57.0,99,30.06,9.0,SE,3.5,-,N/A,,Clear,140,2013-05-10 07:58:00
4:08 AM,57.2,57.2,100,30.06,8.0,SE,4.6,-,N/A,,Clear,140,2013-05-10 08:08:00
4:58 AM,57.2,56.8,99,30.06,7.0,SSE,3.5,-,N/A,,Clear,150,2013-05-10 08:58:00
5:03 AM,57.2,55.4,94,30.05,4.0,SSE,2.3,-,N/A,,Clear,150,2013-05-10 09:03:00
5:08 AM,57.2,57.2,100,30.05,5.0,SSE,2.3,-,N/A,,Clear,150,2013-05-10 09:08:00
5:18 AM,57.2,57.2,100,30.05,9.0,South,2.3,-,N/A,,Clear,170,2013-05-10 09:18:00
5:23 AM,57.2,57.2,100,30.04,5.0,Calm,Calm,-,N/A,,Clear,360,2013-05-10 09:23:00
5:28 AM,57.2,57.2,100,30.04,5.0,SSE,1.2,-,N/A,,Clear,150,2013-05-10 09:28:00
5:33 AM,57.2,57.2,100,30.04,7.0,Calm,Calm,-,N/A,,Clear,30,2013-05-10 09:33:00
5:38 AM,57.2,57.2,100,30.04,4.0,Calm,Calm,-,N/A,,Clear,0,2013-05-10 09:38:00
5:43 AM,57.2,57.2,100,30.04,2.5,Calm,Calm,-,N/A,,Clear,0,2013-05-10 09:43:00
5:53 AM,57.2,57.2,100,30.03,4.0,SE,1.2,-,N/A,,Clear,140,2013-05-10 09:53:00
5:58 AM,57.0,56.7,99,30.04,4.0,SSE,2.3,-,N/A,,Clear,160,2013-05-10 09:58:00
6:03 AM,57.2,57.2,100,30.03,2.5,SE,2.3,-,N/A,,Clear,140,2013-05-10 10:03:00
6:23 AM,55.4,55.4,100,30.03,1.0,Calm,Calm,-,N/A,,Clear,0,2013-05-10 10:23:00
6:28 AM,55.4,55.4,100,30.04,0.5,NW,1.2,-,N/A,Fog,Fog,310,2013-05-10 10:28:00
6:38 AM,53.6,53.6,100,30.04,0.2,Calm,Calm,-,N/A,Fog,Fog,350,2013-05-10 10:38:00
6:43 AM,53.6,53.6,100,30.04,0.2,Calm,Calm,-,N/A,Fog,Fog,0,2013-05-10 10:43:00
6:58 AM,54.3,54.1,99,30.07,0.2,Calm,Calm,-,N/A,Fog,Fog,0,2013-05-10 10:58:00
7:13 AM,55.4,55.4,100,30.07,0.2,Calm,Calm,-,N/A,Fog,Fog,0,2013-05-10 11:13:00
7:18 AM,55.4,55.4,100,30.07,0.5,Calm,Calm,-,N/A,Fog,Fog,0,2013-05-10 11:18:00
7:28 AM,55.4,55.4,100,30.08,0.2,Calm,Calm,-,N/A,Fog,Fog,0,2013-05-10 11:28:00
7:33 AM,57.2,55.4,94,30.08,0.5,Calm,Calm,-,N/A,Fog,Fog,0,2013-05-10 11:33:00
7:38 AM,57.2,57.2,100,30.08,1.0,Calm,Calm,-,N/A,,Scattered Clouds,0,2013-05-10 11:38:00
7:43 AM,57.2,57.2,100,30.08,5.0,NW,1.2,-,N/A,,Partly Cloudy,310,2013-05-10 11:43:00
7:58 AM,58.5,58.3,99,30.08,10.0,SE,2.3,-,N/A,,Partly Cloudy,140,2013-05-10 11:58:00
8:58 AM,66.0,61.9,86,30.08,10.0,SSE,2.3,-,N/A,,Clear,160,2013-05-10 12:58:00
9:58 AM,70.7,63.9,79,30.12,10.0,NW,5.8,-,N/A,,Partly Cloudy,310,2013-05-10 13:58:00
10:58 AM,73.4,62.6,69,30.13,10.0,Variable,4.6,-,N/A,,Partly Cloudy,0,2013-05-10 14:58:00
11:58 AM,74.8,62.1,64,30.13,10.0,Variable,5.8,-,N/A,,Scattered Clouds,0,2013-05-10 15:58:00
12:58 PM,76.1,62.1,62,30.12,10.0,Variable,6.9,-,N/A,,Mostly Cloudy,0,2013-05-10 16:58:00
1:58 PM,76.5,62.1,61,30.09,10.0,SW,6.9,-,N/A,,Scattered Clouds,230,2013-05-10 17:58:00
2:58 PM,77.4,62.6,60,30.05,10.0,Variable,5.8,-,N/A,,Scattered Clouds,0,2013-05-10 18:58:00
3:58 PM,76.5,61.0,59,30.02,10.0,SSE,4.6,-,N/A,,Mostly Cloudy,150,2013-05-10 19:58:00
4:58 PM,74.1,61.2,64,30.02,10.0,Variable,1.2,-,N/A,,Overcast,0,2013-05-10 20:58:00
5:58 PM,77.0,61.0,58,30.01,10.0,WSW,4.6,-,N/A,,Scattered Clouds,250,2013-05-10 21:58:00
6:58 PM,78.4,61.7,56,29.98,10.0,SSE,5.8,-,N/A,,Clear,150,2013-05-10 22:58:00
7:58 PM,72.1,64.8,78,29.97,10.0,Calm,Calm,-,N/A,,Scattered Clouds,0,2013-05-10 23:58:00
8:58 PM,66.2,63.1,90,29.99,10.0,Calm,Calm,-,N/A,,Clear,0,2013-05-11 00:58:00
9:58 PM,63.1,62.8,99,30.01,10.0,ENE,1.2,-,N/A,,Partly Cloudy,70,2013-05-11 01:58:00
10:58 PM,62.6,62.1,98,30.01,10.0,SE,3.5,-,N/A,,Scattered Clouds,140,2013-05-11 02:58:00
11:08 PM,62.6,62.6,100,30.00,9.0,SSE,2.3,-,N/A,,Partly Cloudy,160,2013-05-11 03:08:00
11:33 PM,60.8,60.8,100,30.01,10.0,SSE,2.3,-,N/A,,Scattered Clouds,150,2013-05-11 03:33:00
11:38 PM,60.8,60.8,100,30.01,9.0,SSE,2.3,-,N/A,,Mostly Cloudy,150,2013-05-11 03:38:00
11:48 PM,60.8,60.8,100,30.01,10.0,SE,3.5,-,N/A,,Mostly Cloudy,140,2013-05-11 03:48:00
11:58 PM,61.5,61.2,99,30.02,10.0,SE,3.5,-,N/A,,Scattered Clouds,140,2013-05-11 03:58:00